Regional Weather Roundup
Issued by NWS

Home | Current Version | Previous Version | Text Only | Print | Product List | Glossary On
Versions: 1 2 3 4 5 6 7 8 9 10 11 12 13 14 15 16 17 18 19 20 21 22 23 24 25 26 27 28 29 30 31 32 33 34 35 36 37 38 39 40 41 42 43 44 45 46 47 48 49 50
000
ASUS45 KTFX 311519
RWRMT
MONTANA HOURLY WEATHER ROUNDUP
NATIONAL WEATHER SERVICE GREAT FALLS MT
919 AM MDT THU JUL 31 2014

NOTE: "FAIR" INDICATES FEW OR NO CLOUDS BELOW 12000 FEET WITH NO
SIGNIFICANT WEATHER AND/OR OBSTRUCTIONS TO VISIBILITY.

* THESE STATIONS ARE NOT UNDER NWS QUALITY CONTROL. THEY DO NOT
   REPORT WEATHER SUCH AS PRECIPITATION OR FOG.

MTZ001>007-043-311600-
WEST OF THE DIVIDE
CITY           SKY/WX    TMP DP  RH WIND       PRES   REMARKS
KALISPELL      SUNNY     70  50  49 N8        30.14S
MISSOULA       SUNNY     66  46  49 CALM      30.20R
BUTTE          PTCLDY    61  45  56 CALM      30.32S
MULLAN PASS    SUNNY     72  28  19 NW3       30.32R
* ESSEX        N/A       59  47  65 E4G12      N/A
* LINCOLN      N/A       54  46  74 NE2        N/A
* LOOKOUT PASS N/A       65  45  49 S1         N/A
* POLSON       N/A       65  50  58 SE1        N/A
* RONAN APT    SUNNY     68  54  61 N/A        N/A
* SEELEY LAKE  N/A       60  46  60 N/A        N/A
* THOMP F APT  SUNNY     63  46  54 N/A        N/A
* YAAK HILL    N/A       61  50  67 SE5        N/A
$$

MTZ008-052>055-311600-
SOUTHWEST MONTANA
CITY           SKY/WX    TMP DP  RH WIND       PRES   REMARKS
BOZEMAN        SUNNY     64  46  52 VRB3      30.25S
DILLON         SUNNY     61  48  62 SW8       30.30R
W YELLOWSTONE  SUNNY     57  45  64 CALM      30.39S
* THREE FORKS  SUNNY     63  63 100 N/A        N/A
* BOULDER HILL N/A       62  42  48 SW9        N/A
* MONIDA PASS  N/A       53  46  77 N7         N/A
* RAYNOLDS PAS N/A       56  41  57 S5         N/A
* WHITEHALL    N/A       60  47  62 SW4G9      N/A
* WISE RIVER   N/A       50  44  80 NW4        N/A
$$

MTZ009>010-012-014-046-048-049-054-311600-
EAST SLOPES AND CENTRAL MONTANA
CITY           SKY/WX    TMP DP  RH WIND       PRES   REMARKS
CUT BANK       PTCLDY    75  48  39 W7        30.15R
GREAT FALLS    SUNNY     72  45  38 SW7       30.15R
HELENA         PTCLDY    68  46  45 CALM      30.21S
MALMSTROM AFB  PTCLDY    70  46  42 W6        30.16S
* CONRAD       SUNNY     73  57  57 N/A        N/A
* DEARBORN     N/A       65  50  58 W2         N/A
* EAST GLACIER N/A       67  46  47 NW5        N/A
* MONARCH      N/A       66  43  43 N/A        N/A
* PENDROY      N/A       76  52  43 NW6        N/A
* ROGERS PASS  N/A       65  42  43 E3G8       N/A
* SAINT MARY   N/A       56  51  83 SE2        N/A
* SWEET GRASS  N/A       72  43  35 W7         N/A
* WHITE SULPH  N/A       66  43  43 SW3        N/A
$$

MTZ011-013-016-021-035-040-045-047-050-051-311600-
NORTH CENTRAL MONTANA
CITY           SKY/WX    TMP DP  RH WIND       PRES   REMARKS
HAVRE          SUNNY     73  46  38 W7        30.07R
LEWISTOWN      PTCLDY    75  39  27 SW6       30.17F
* FORT BENTON  SUNNY     75  45  34 SW10      30.10F
* CHESTER      N/A       69  45  42 SW3        N/A
* DENTON       N/A       76  50  40 SE4        N/A
* GEYSER       N/A       76  50  40 W9G15      N/A
* JUDITH GAP   N/A       75  48  39 N/A        N/A
* LOMA         N/A       72  47  41 SW4        N/A
$$

MTZ017>020-022>027-061-062-311600-
NORTHEAST MONTANA
CITY           SKY/WX    TMP DP  RH WIND       PRES   REMARKS
GLASGOW        SUNNY     77  48  36 SE18      30.04F
GLENDIVE       PTCLDY    73  52  48 S7        30.11F
JORDAN         PTCLDY    81  45  28 S13       30.07F
SIDNEY         PTSUNNY   70  57  64 SE7       30.09F
WOLF POINT     PTCLDY    82  48  31 S10G16    30.04F
* BEAVER HILL  N/A       72  52  49 S13        N/A
* CIRCLE       N/A       77  52  42 SE8G13     N/A
* LINDSAY DVD  N/A       74  50  43 SE14G19    N/A
* NAVAJO       N/A       69  56  63 S6         N/A
$$

MTZ028>042-056>058-311600-
SOUTHCENTRAL AND SOUTHEAST MONTANA
CITY           SKY/WX    TMP DP  RH WIND       PRES   REMARKS
BAKER          PTSUNNY   77  48  36 S10       30.16F
BILLINGS       PTCLDY    66  43  43 SW8       30.16R
LIVINGSTON     PTCLDY    72  43  35 NW13      30.23S
MILES CITY     PTCLDY    75  52  45 SE14      30.11F
* LAUREL APT   PTCLDY    70  39  32 S6         N/A
* ROUNDUP APT  PTCLDY    64  37  37 S6         N/A
* ALZADA       N/A       69  49  49 NW4        N/A
* HYSHAM       N/A       76  42  30 W1G10      N/A
* LAME DEER    N/A       76  41  29 S10        N/A
* REED POINT   N/A       60  46  60 W2         N/A
* ROSCOE HILL  N/A       76  40  27 S2         N/A
$$

REGIONAL REPORTS...DAKOTAS
CITY           SKY/WX    TMP DP  RH WIND       PRES   REMARKS
WILLISTON      PTSUNNY   70  57  64 S5        30.08S
DICKINSON      PTSUNNY   72  57  59 S9        30.10S
CROSBY         SUNNY     72  59  64 SE7       30.09R
TIOGA          SUNNY     72  63  73 SE8       30.12S
WATFORD CITY   SUNNY     70  59  68 S5        30.07R
BISMARCK       SUNNY     72  57  59 S3        30.11S
GRAND FORKS    SUNNY     77  57  50 NW7       30.02S
FARGO          SUNNY     73  59  62 CALM      30.04S
BUFFALO SD     SUNNY     72  55  55 SW3       30.10F
RAPID CITY     PTCLDY    75  52  45 N6        30.18R
$$

REGIONAL REPORTS...WYOMING/IDAHO/WASHINGTON
CITY           SKY/WX    TMP DP  RH WIND       PRES   REMARKS
GILLETTE       SUNNY     73  46  38 SW9       30.23S
SHERIDAN       SUNNY     70  45  41 CALM      30.19S
YELLOWSTONE LA SUNNY     55  46  72 SE5       30.48S
SALMON         SUNNY     63  48  58 CALM      30.26S
MULLAN PASS    SUNNY     72  28  19 NW3       30.32S
SAND POINT     SUNNY     68  52  57 CALM      30.09R
SPOKANE        SUNNY     75  43  32 S8        30.07R
$$

REGIONAL REPORTS...ALBERTA
CITY           SKY/WX    TMP DP  RH WIND       PRES   REMARKS
CALGARY        SUNNY     70  59  68 N17G29    30.15R
LETHBRIDGE     SUNNY     68  54  61 W6        30.10R
MEDICINE HAT   N/A       68  55  63 SW12      30.03S
EDMONTON       PTSUNNY   72  55  55 NE8       30.11S
WATERTON GATE  N/A       70  50  49 S3         N/A
CARDSTON       N/A       70  55  59 N1         N/A
MILK RIVER     N/A       70  46  42 W7         N/A
$$

REGIONAL REPORTS...SASKATCHEWAN
CITY           SKY/WX    TMP DP  RH WIND       PRES   REMARKS
SWIFT CURRENT  SUNNY     73  54  51 SW13      30.02S
MOOSE JAW      SUNNY     72  61  68 SE7       30.06S
REGINA         SUNNY     72  59  64 SE10      30.07S
VAL MARIE      N/A       73  52  48 S8         N/A
ASSINIBOIA     N/A       72  57  59 SE5        N/A
CORONACH       N/A       70  55  59 SE6        N/A

$$



USA.gov is the U.S. government's official web portal to all federal, state and local government web resources and services.